| time (UTC) | temp F | wind direction | speed knots | gust knots | rain 1hr in | rain 24hr in | rain mn in | humidity % | barometer mb |
| 20260906021044 | 59 | 299 | 5.2 | 7.8 | 0.00 | 0.00 | 0.00 | 75 | 1015.2 |
| 20260906020544 | 59 | 305 | 5.2 | 7.8 | 0.00 | 0.00 | 0.00 | 75 | 1015.2 |
| 20260906020106 | 59 | 312 | 4.3 | 7.8 | 0.00 | 0.00 | 0.00 | 75 | 1015.2 |
| 20260906015544 | 60 | 298 | 3.5 | 7.0 | 0.00 | 0.00 | 0.00 | 74 | 1015.1 |
| 20260906015048 | 60 | 296 | 2.6 | 7.0 | 0.00 | 0.00 | 0.00 | 73 | 1015.3 |
| 20260906014612 | 60 | 313 | 3.5 | 8.7 | 0.00 | 0.00 | 0.00 | 73 | 1015.3 |
| 20260906014044 | 60 | 302 | 5.2 | 8.7 | 0.00 | 0.00 | 0.00 | 71 | 1015.2 |
| 20260906013544 | 60 | 292 | 4.3 | 8.7 | 0.00 | 0.00 | 0.00 | 70 | 1015.3 |
| 20260906013100 | 61 | 311 | 3.5 | 8.7 | 0.00 | 0.00 | 0.00 | 69 | 1015.3 |
| 20260906012544 | 61 | 301 | 3.5 | 7.8 | 0.00 | 0.00 | 0.00 | 69 | 1015.2 |
| 20260906012046 | 61 | 322 | 3.5 | 7.8 | 0.00 | 0.00 | 0.00 | 68 | 1015.1 |
| 20260906011559 | 61 | 299 | 3.5 | 7.0 | 0.00 | 0.00 | 0.00 | 69 | 1015.3 |
| 20260906011044 | 61 | 295 | 3.5 | 7.8 | 0.00 | 0.00 | 0.00 | 69 | 1015.3 |
| 20260906010543 | 61 | 300 | 3.5 | 7.8 | 0.00 | 0.00 | 0.00 | 67 | 1015.3 |
| 20260906010113 | 61 | 290 | 4.3 | 8.7 | 0.00 | 0.00 | 0.00 | 67 | 1015.3 |
| 20260906005546 | 61 | 284 | 3.5 | 8.7 | 0.00 | 0.00 | 0.00 | 67 | 1015.1 |
| 20260906005044 | 62 | 309 | 4.3 | 7.8 | 0.00 | 0.00 | 0.00 | 66 | 1015.3 |
| 20260906004610 | 62 | 311 | 3.5 | 7.8 | 0.00 | 0.00 | 0.00 | 65 | 1015.2 |
| 20260906004044 | 62 | 305 | 2.6 | 8.7 | 0.00 | 0.00 | 0.00 | 64 | 1015.3 |
| 20260906003544 | 62 | 313 | 4.3 | 8.7 | 0.00 | 0.00 | 0.00 | 62 | 1015.2 |
| 20260906003118 | 63 | 291 | 5.2 | 9.6 | 0.00 | 0.00 | 0.00 | 61 | 1015.3 |
| 20260906002543 | 63 | 317 | 5.2 | 9.6 | 0.00 | 0.00 | 0.00 | 60 | 1015.2 |
| 20260906002046 | 63 | 311 | 5.2 | 7.8 | 0.00 | 0.00 | 0.00 | 58 | 1015.2 |
| 20260906001559 | 64 | 313 | 4.3 | 9.6 | 0.00 | 0.00 | 0.00 | 57 | 1015.2 |
| 20260906001043 | 64 | 296 | 5.2 | 11.3 | 0.00 | 0.00 | 0.00 | 57 | 1015.2 |
| 20260906000545 | 64 | 298 | 6.1 | 11.3 | 0.00 | 0.00 | 0.00 | 56 | 1015.2 |
| 20260906000103 | 64 | 313 | 7.0 | 11.3 | 0.00 | 0.00 | 0.00 | 56 | 1015.1 |
| 20260905235544 | 65 | 299 | 7.0 | 10.4 | 0.00 | 0.00 | 0.00 | 55 | 1015.1 |
| 20260905235044 | 65 | 305 | 5.2 | 9.6 | 0.00 | 0.00 | 0.00 | 55 | 1015.2 |
| 20260905234609 | 65 | 300 | 5.2 | 8.7 | 0.00 | 0.00 | 0.00 | 55 | 1015.2 |
| 20260905234046 | 65 | 307 | 4.3 | 8.7 | 0.00 | 0.00 | 0.00 | 54 | 1015.2 |
| 20260905233544 | 65 | 308 | 3.5 | 7.8 | 0.00 | 0.00 | 0.00 | 55 | 1015.2 |
| 20260905233101 | 65 | 296 | 3.5 | 8.7 | 0.00 | 0.00 | 0.00 | 56 | 1015.1 |
| 20260905232543 | 64 | 321 | 4.3 | 10.4 | 0.00 | 0.00 | 0.00 | 56 | 1015.2 |
| 20260905232045 | 64 | 297 | 5.2 | 10.4 | 0.00 | 0.00 | 0.00 | 58 | 1015.2 |
| 20260905231557 | 64 | 313 | 5.2 | 10.4 | 0.00 | 0.00 | 0.00 | 58 | 1015.2 |
| 20260905231043 | 63 | 312 | 6.1 | 9.6 | 0.00 | 0.00 | 0.00 | 59 | 1015.3 |
| 20260905230546 | 63 | 311 | 5.2 | 10.4 | 0.00 | 0.00 | 0.00 | 59 | 1015.4 |
| 20260905230058 | 63 | 296 | 6.1 | 10.4 | 0.00 | 0.00 | 0.00 | 59 | 1015.4 |
| 20260905225542 | 64 | 299 | 7.0 | 9.6 | 0.00 | 0.00 | 0.00 | 59 | 1015.4 |
| 20260905225043 | 64 | 288 | 6.1 | 9.6 | 0.00 | 0.00 | 0.00 | 60 | 1015.6 |
| 20260905224600 | 64 | 314 | 6.1 | 9.6 | 0.00 | 0.00 | 0.00 | 58 | 1015.4 |
| 20260905224042 | 65 | 303 | 6.1 | 9.6 | 0.00 | 0.00 | 0.00 | 58 | 1015.4 |
| 20260905223542 | 65 | 311 | 6.1 | 9.6 | 0.00 | 0.00 | 0.00 | 57 | 1015.5 |
| 20260905223057 | 66 | 300 | 6.1 | 11.3 | 0.00 | 0.00 | 0.00 | 56 | 1015.4 |
| 20260905222544 | 66 | 338 | 7.0 | 11.3 | 0.00 | 0.00 | 0.00 | 55 | 1015.5 |
| 20260905222043 | 66 | 311 | 6.1 | 10.4 | 0.00 | 0.00 | 0.00 | 55 | 1015.4 |
| 20260905221605 | 66 | 309 | 4.3 | 8.7 | 0.00 | 0.00 | 0.00 | 56 | 1015.4 |
| 20260905221045 | 66 | 317 | 5.2 | 7.8 | 0.00 | 0.00 | 0.00 | 57 | 1015.4 |
| 20260905220544 | 67 | 311 | 4.3 | 8.7 | 0.00 | 0.00 | 0.00 | 57 | 1015.4 |
| 20260905220106 | 67 | 300 | 4.3 | 8.7 | 0.00 | 0.00 | 0.00 | 58 | 1015.4 |
| 20260905215543 | 67 | 315 | 4.3 | 8.7 | 0.00 | 0.00 | 0.00 | 58 | 1015.5 |
| 20260905215047 | 67 | 313 | 5.2 | 9.6 | 0.00 | 0.00 | 0.00 | 57 | 1015.6 |
| 20260905214557 | 68 | 304 | 6.1 | 9.6 | 0.00 | 0.00 | 0.00 | 56 | 1015.5 |
| 20260905214042 | 68 | 319 | 5.2 | 8.7 | 0.00 | 0.00 | 0.00 | 54 | 1015.5 |
| 20260905213546 | 69 | 313 | 5.2 | 8.7 | 0.00 | 0.00 | 0.00 | 53 | 1015.5 |
| 20260905213058 | 69 | 323 | 4.3 | 8.7 | 0.00 | 0.00 | 0.00 | 52 | 1015.5 |
| 20260905212543 | 69 | 303 | 2.6 | 6.1 | 0.00 | 0.00 | 0.00 | 52 | 1015.6 |
| 20260905212043 | 69 | 308 | 2.6 | 7.0 | 0.00 | 0.00 | 0.00 | 51 | 1015.5 |
| 20260905211551 | 69 | 290 | 3.5 | 7.0 | 0.00 | 0.00 | 0.00 | 50 | 1015.6 |
| 20260905211043 | 69 | 311 | 3.5 | 6.1 | 0.00 | 0.00 | 0.00 | 52 | 1015.5 |
| 20260905210546 | 69 | 319 | 2.6 | 7.0 | 0.00 | 0.00 | 0.00 | 51 | 1015.6 |
| 20260905210103 | 69 | 294 | 3.5 | 7.0 | 0.00 | 0.00 | 0.00 | 49 | 1015.6 |
| 20260905205544 | 70 | 292 | 2.6 | 7.0 | 0.00 | 0.00 | 0.00 | 49 | 1015.6 |
| 20260905205044 | 70 | 312 | 2.6 | 7.0 | 0.00 | 0.00 | 0.00 | 47 | 1015.6 |
| 20260905204602 | 70 | 311 | 2.6 | 7.8 | 0.00 | 0.00 | 0.00 | 48 | 1015.6 |
| 20260905204045 | 70 | 319 | 3.5 | 7.8 | 0.00 | 0.00 | 0.00 | 47 | 1015.6 |
| 20260905203542 | 70 | 291 | 3.5 | 7.8 | 0.00 | 0.00 | 0.00 | 48 | 1015.6 |
| 20260905203057 | 70 | 323 | 2.6 | 7.0 | 0.00 | 0.00 | 0.00 | 48 | 1015.6 |
| 20260905202544 | 69 | 328 | 3.5 | 7.0 | 0.00 | 0.00 | 0.00 | 47 | 1015.6 |
| 20260905202043 | 69 | 298 | 2.6 | 6.1 | 0.00 | 0.00 | 0.00 | 50 | 1015.6 |
| 20260905201553 | 69 | 320 | 2.6 | 7.0 | 0.00 | 0.00 | 0.00 | 51 | 1015.6 |
| 20260905201044 | 69 | 309 | 3.5 | 7.0 | 0.00 | 0.00 | 0.00 | 50 | 1015.7 |
| 20260905200543 | 69 | 297 | 1.7 | 6.1 | 0.00 | 0.00 | 0.00 | 50 | 1015.7 |
| 20260905200104 | 69 | 311 | 2.6 | 6.1 | 0.00 | 0.00 | 0.00 | 51 | 1015.7 |
| 20260905195542 | 69 | 304 | 2.6 | 6.1 | 0.00 | 0.00 | 0.00 | 51 | 1015.8 |
| 20260905195043 | 70 | 315 | 3.5 | 6.1 | 0.00 | 0.00 | 0.00 | 49 | 1015.9 |
| 20260905194557 | 70 | 317 | 2.6 | 6.1 | 0.00 | 0.00 | 0.00 | 51 | 1015.8 |
| 20260905194044 | 69 | 317 | 1.7 | 7.0 | 0.00 | 0.00 | 0.00 | 51 | 1016.0 |
| 20260905193543 | 69 | 300 | 1.7 | 7.0 | 0.00 | 0.00 | 0.00 | 51 | 1016.0 |
| 20260905193107 | 69 | 334 | 1.7 | 7.0 | 0.00 | 0.00 | 0.00 | 51 | 1016.1 |
| 20260905192543 | 69 | 331 | 1.7 | 4.3 | 0.00 | 0.00 | 0.00 | 49 | 1016.1 |
| 20260905192044 | 69 | 310 | 0.9 | 5.2 | 0.00 | 0.00 | 0.00 | 50 | 1016.1 |
| 20260905191558 | 68 | 302 | 0.9 | 6.1 | 0.00 | 0.00 | 0.00 | 51 | 1016.2 |
| 20260905191045 | 68 | 221 | 1.7 | 6.1 | 0.00 | 0.00 | 0.00 | 50 | 1016.2 |
| 20260905190542 | 68 | 314 | 0.9 | 6.1 | 0.00 | 0.00 | 0.00 | 50 | 1016.2 |
| 20260905190103 | 68 | 313 | 2.6 | 6.1 | 0.00 | 0.00 | 0.00 | 49 | 1016.2 |
| 20260905185544 | 68 | 320 | 1.7 | 4.3 | 0.00 | 0.00 | 0.00 | 49 | 1016.3 |
| 20260905185046 | 68 | 319 | 1.7 | 4.3 | 0.00 | 0.00 | 0.00 | 49 | 1016.2 |
| 20260905184558 | 68 | 319 | 1.7 | 4.3 | 0.00 | 0.00 | 0.00 | 47 | 1016.3 |
| 20260905184044 | 68 | 349 | 0.9 | 4.3 | 0.00 | 0.00 | 0.00 | 47 | 1016.1 |
| 20260905183546 | 68 | 326 | 1.7 | 3.5 | 0.00 | 0.00 | 0.00 | 45 | 1016.2 |
| 20260905183059 | 68 | 294 | 0.9 | 3.5 | 0.00 | 0.00 | 0.00 | 43 | 1016.1 |
| 20260905182544 | 67 | 232 | 0.9 | 3.5 | 0.00 | 0.00 | 0.00 | 43 | 1016.1 |
| 20260905182045 | 67 | 300 | 1.7 | 3.5 | 0.00 | 0.00 | 0.00 | 44 | 1016.0 |
| 20260905181605 | 66 | 318 | 0.9 | 3.5 | 0.00 | 0.00 | 0.00 | 45 | 1016.1 |
| 20260905181045 | 66 | 0 | 1.7 | 3.5 | 0.00 | 0.00 | 0.00 | 47 | 1016.0 |
| 20260905180545 | 66 | 342 | 0.9 | 3.5 | 0.00 | 0.00 | 0.00 | 49 | 1016.0 |
| 20260905180051 | 66 | 311 | 0.9 | 3.5 | 0.00 | 0.00 | 0.00 | 48 | 1016.0 |
| 20260905175545 | 65 | 309 | 0.9 | 3.5 | 0.00 | 0.00 | 0.00 | 50 | 1016.0 |
| 20260905175045 | 65 | 285 | 0.9 | 3.5 | 0.00 | 0.00 | 0.00 | 51 | 1015.9 |
| 20260905174557 | 65 | 238 | 0.9 | 2.6 | 0.00 | 0.00 | 0.00 | 49 | 1015.9 |
| 20260905174046 | 65 | 271 | 0.9 | 2.6 | 0.00 | 0.00 | 0.00 | 49 | 1015.9 |
| 20260905173545 | 65 | 142 | 0.9 | 1.7 | 0.00 | 0.00 | 0.00 | 49 | 1015.9 |
| 20260905173052 | 64 | 0 | 0.0 | 1.7 | 0.00 | 0.00 | 0.00 | 49 | 1015.8 |
| 20260905172545 | 64 | 0 | 0.0 | 1.7 | 0.00 | 0.00 | 0.00 | 51 | 1015.8 |
| 20260905172045 | 64 | 0 | 0.0 | 1.7 | 0.00 | 0.00 | 0.00 | 51 | 1015.7 |
| 20260905171603 | 64 | 142 | 0.9 | 1.7 | 0.00 | 0.00 | 0.00 | 51 | 1015.7 |
| 20260905171045 | 63 | 142 | 0.0 | 4.3 | 0.00 | 0.00 | 0.00 | 51 | 1015.7 |
| 20260905170545 | 63 | 0 | 0.9 | 4.3 | 0.00 | 0.00 | 0.00 | 51 | 1015.6 |
| 20260905170107 | 63 | 125 | 1.7 | 4.3 | 0.00 | 0.00 | 0.00 | 46 | 1015.6 |
| 20260905165547 | 62 | 150 | 0.9 | 4.3 | 0.00 | 0.00 | 0.00 | 54 | 1015.6 |
| 20260905165044 | 62 | 147 | 1.7 | 4.3 | 0.00 | 0.00 | 0.00 | 54 | 1015.4 |
| 20260905164559 | 61 | 153 | 2.6 | 4.3 | 0.00 | 0.00 | 0.00 | 56 | 1015.5 |
| 20260905164045 | 61 | 154 | 0.9 | 3.5 | 0.00 | 0.00 | 0.00 | 55 | 1015.4 |
| 20260905163544 | 60 | 0 | 0.0 | 2.6 | 0.00 | 0.00 | 0.00 | 52 | 1015.5 |
| 20260905163052 | 60 | 0 | 0.0 | 2.6 | 0.00 | 0.00 | 0.00 | 53 | 1015.4 |
| 20260905162547 | 60 | 333 | 0.9 | 2.6 | 0.00 | 0.00 | 0.00 | 53 | 1015.5 |
| 20260905162045 | 60 | 333 | 0.9 | 1.7 | 0.00 | 0.00 | 0.00 | 53 | 1015.5 |
| 20260905161550 | 60 | 160 | 0.9 | 1.7 | 0.00 | 0.00 | 0.00 | 52 | 1015.6 |
| 20260905161045 | 61 | 160 | 0.9 | 1.7 | 0.00 | 0.00 | 0.00 | 51 | 1015.6 |
| 20260905160545 | 61 | 160 | 0.9 | 1.7 | 0.00 | 0.00 | 0.00 | 47 | 1015.4 |
| 20260905160101 | 61 | 160 | 0.0 | 2.6 | 0.00 | 0.00 | 0.00 | 47 | 1015.5 |
| 20260905155545 | 61 | 0 | 0.0 | 3.5 | 0.00 | 0.00 | 0.00 | 46 | 1015.4 |
| 20260905155046 | 61 | 160 | 0.9 | 3.5 | 0.00 | 0.00 | 0.00 | 44 | 1015.4 |
| 20260905154600 | 61 | 160 | 0.9 | 3.5 | 0.00 | 0.00 | 0.00 | 44 | 1015.3 |
| 20260905154045 | 61 | 160 | 1.7 | 4.3 | 0.00 | 0.00 | 0.00 | 43 | 1015.3 |
| 20260905153548 | 61 | 167 | 1.7 | 4.3 | 0.00 | 0.00 | 0.00 | 44 | 1015.2 |
| 20260905153053 | 60 | 158 | 0.9 | 4.3 | 0.00 | 0.00 | 0.00 | 44 | 1015.3 |
| 20260905152545 | 60 | 158 | 1.7 | 4.3 | 0.00 | 0.00 | 0.00 | 45 | 1015.2 |
| 20260905152046 | 60 | 161 | 2.6 | 4.3 | 0.00 | 0.00 | 0.00 | 45 | 1015.2 |
| 20260905151603 | 60 | 161 | 0.0 | 1.7 | 0.00 | 0.00 | 0.00 | 47 | 1015.0 |
| 20260905151045 | 59 | 161 | 0.9 | 1.7 | 0.00 | 0.00 | 0.00 | 47 | 1015.1 |
| 20260905150544 | 59 | 161 | 0.9 | 3.5 | 0.00 | 0.00 | 0.00 | 50 | 1015.1 |
| 20260905150100 | 59 | 161 | 0.9 | 3.5 | 0.00 | 0.00 | 0.00 | 50 | 1015.1 |
| 20260905145545 | 59 | 161 | 0.9 | 3.5 | 0.00 | 0.00 | 0.00 | 50 | 1015.1 |
| 20260905145044 | 59 | 161 | 0.9 | 3.5 | 0.00 | 0.00 | 0.00 | 50 | 1015.0 |
| 20260905144554 | 58 | 161 | 0.0 | 3.5 | 0.00 | 0.00 | 0.00 | 51 | 1015.0 |
| 20260905144049 | 58 | 161 | 1.7 | 3.5 | 0.00 | 0.00 | 0.00 | 50 | 1015.0 |
| 20260905143545 | 58 | 162 | 0.0 | 0.0 | 0.00 | 0.00 | 0.00 | 48 | 1015.0 |
| 20260905143056 | 57 | 0 | 0.0 | 0.0 | 0.00 | 0.00 | 0.00 | 50 | 1015.0 |
| 20260905142545 | 57 | 0 | 0.0 | 0.0 | 0.00 | 0.00 | 0.00 | 52 | 1015.1 |
| 20260905142045 | 57 | 0 | 0.0 | 0.0 | 0.00 | 0.00 | 0.00 | 51 | 1015.0 |
| 20260905141602 | 57 | 0 | 0.0 | 0.0 | 0.00 | 0.00 | 0.00 | 52 | 1015.0 |
| 20260905141048 | 57 | 0 | 0.0 | 0.0 | 0.00 | 0.00 | 0.00 | 54 | 1015.0 |
| 20260905140545 | 57 | 0 | 0.0 | 0.0 | 0.00 | 0.00 | 0.00 | 54 | 1014.9 |
| 20260905140058 | 56 | 0 | 0.0 | 0.0 | 0.00 | 0.00 | 0.00 | 54 | 1014.9 |
| 20260905135546 | 56 | 0 | 0.0 | 0.0 | 0.00 | 0.00 | 0.00 | 54 | 1014.8 |
| 20260905135049 | 56 | 0 | 0.0 | 0.0 | 0.00 | 0.00 | 0.00 | 54 | 1014.8 |
| 20260905134558 | 56 | 0 | 0.0 | 0.0 | 0.00 | 0.00 | 0.00 | 54 | 1014.7 |
| 20260905134045 | 56 | 0 | 0.0 | 0.0 | 0.00 | 0.00 | 0.00 | 56 | 1014.7 |
| 20260905133545 | 55 | 0 | 0.0 | 0.0 | 0.00 | 0.00 | 0.00 | 57 | 1014.7 |
| 20260905133052 | 55 | 0 | 0.0 | 0.0 | 0.00 | 0.00 | 0.00 | 57 | 1014.7 |
| 20260905132548 | 55 | 0 | 0.0 | 0.0 | 0.00 | 0.00 | 0.00 | 57 | 1014.6 |
| 20260905132046 | 55 | 0 | 0.0 | 0.0 | 0.00 | 0.00 | 0.00 | 57 | 1014.7 |
| 20260905131605 | 55 | 0 | 0.0 | 0.0 | 0.00 | 0.00 | 0.00 | 57 | 1014.6 |
| 20260905131045 | 55 | 0 | 0.0 | 0.0 | 0.00 | 0.00 | 0.00 | 58 | 1014.7 |
| 20260905130545 | 55 | 0 | 0.0 | 0.0 | 0.00 | 0.00 | 0.00 | 58 | 1014.7 |
| 20260905130059 | 55 | 0 | 0.0 | 0.0 | 0.00 | 0.00 | 0.00 | 58 | 1014.7 |
| 20260905125544 | 55 | 0 | 0.0 | 0.0 | 0.00 | 0.00 | 0.00 | 60 | 1014.7 |
| 20260905125044 | 56 | 0 | 0.0 | 0.0 | 0.00 | 0.00 | 0.00 | 58 | 1014.7 |
| 20260905124555 | 56 | 0 | 0.0 | 0.0 | 0.00 | 0.00 | 0.00 | 60 | 1014.8 |
| 20260905124044 | 56 | 0 | 0.0 | 0.0 | 0.00 | 0.00 | 0.00 | 58 | 1014.7 |
| 20260905123545 | 56 | 0 | 0.0 | 0.0 | 0.00 | 0.00 | 0.00 | 58 | 1014.9 |
| 20260905123108 | 56 | 0 | 0.0 | 1.7 | 0.00 | 0.00 | 0.00 | 58 | 1014.8 |
| 20260905122545 | 56 | 0 | 0.0 | 1.7 | 0.00 | 0.00 | 0.00 | 58 | 1014.8 |
| 20260905122047 | 56 | 0 | 0.0 | 1.7 | 0.00 | 0.00 | 0.00 | 58 | 1014.8 |
| 20260905121559 | 56 | 0 | 0.0 | 2.6 | 0.00 | 0.00 | 0.00 | 58 | 1014.7 |
| 20260905121045 | 56 | 328 | 0.9 | 2.6 | 0.00 | 0.00 | 0.00 | 58 | 1014.7 |
| 20260905120549 | 56 | 328 | 0.9 | 2.6 | 0.00 | 0.00 | 0.00 | 59 | 1014.7 |
| 20260905115544 | 56 | 328 | 0.9 | 2.6 | 0.00 | 0.01 | 0.00 | 57 | 1014.7 |
| 20260905115044 | 57 | 328 | 0.9 | 3.5 | 0.00 | 0.01 | 0.00 | 56 | 1014.6 |
| 20260905114555 | 57 | 328 | 1.7 | 4.3 | 0.00 | 0.01 | 0.00 | 55 | 1014.6 |
| 20260905114044 | 57 | 328 | 1.7 | 4.3 | 0.00 | 0.01 | 0.00 | 54 | 1014.5 |
| 20260905113544 | 57 | 328 | 1.7 | 4.3 | 0.00 | 0.01 | 0.00 | 53 | 1014.5 |
| 20260905113100 | 57 | 328 | 2.6 | 4.3 | 0.00 | 0.01 | 0.00 | 52 | 1014.4 |
| 20260905112545 | 57 | 317 | 2.6 | 4.3 | 0.00 | 0.01 | 0.00 | 51 | 1014.5 |
| 20260905112044 | 57 | 315 | 2.6 | 5.2 | 0.00 | 0.01 | 0.00 | 51 | 1014.5 |
| 20260905111645 | 57 | 316 | 2.6 | 6.1 | 0.00 | 0.01 | 0.00 | 51 | 1014.4 |
| 20260905111045 | 57 | 330 | 3.5 | 6.1 | 0.00 | 0.01 | 0.00 | 51 | 1014.5 |
| 20260905110545 | 57 | 313 | 3.5 | 5.2 | 0.00 | 0.01 | 0.00 | 53 | 1014.5 |
| 20260905110055 | 56 | 319 | 2.6 | 5.2 | 0.00 | 0.01 | 0.00 | 54 | 1014.5 |
| 20260905105545 | 56 | 320 | 3.5 | 7.0 | 0.00 | 0.01 | 0.00 | 55 | 1014.6 |
| 20260905105045 | 56 | 319 | 2.6 | 8.7 | 0.00 | 0.01 | 0.00 | 57 | 1014.5 |
| 20260905104601 | 56 | 305 | 3.5 | 8.7 | 0.00 | 0.01 | 0.00 | 58 | 1014.4 |
| 20260905104045 | 55 | 313 | 6.1 | 8.7 | 0.00 | 0.01 | 0.00 | 59 | 1014.5 |
| 20260905103547 | 54 | 317 | 6.1 | 7.8 | 0.00 | 0.01 | 0.00 | 61 | 1014.4 |
| 20260905103102 | 54 | 319 | 5.2 | 8.7 | 0.00 | 0.01 | 0.00 | 63 | 1014.5 |
| 20260905102544 | 53 | 322 | 5.2 | 8.7 | 0.00 | 0.01 | 0.00 | 66 | 1014.6 |
| 20260905102045 | 52 | 323 | 5.2 | 8.7 | 0.00 | 0.01 | 0.00 | 68 | 1014.6 |
| 20260905101559 | 52 | 320 | 5.2 | 7.8 | 0.00 | 0.01 | 0.00 | 72 | 1014.6 |
| 20260905101045 | 53 | 301 | 4.3 | 7.0 | 0.00 | 0.01 | 0.00 | 72 | 1014.6 |
| 20260905100544 | 53 | 317 | 4.3 | 7.0 | 0.00 | 0.01 | 0.00 | 70 | 1014.7 |
| 20260905100218 | 53 | 313 | 4.3 | 7.0 | 0.00 | 0.01 | 0.00 | 68 | 1014.7 |
| 20260905095543 | 54 | 323 | 4.3 | 7.8 | 0.00 | 0.01 | 0.00 | 67 | 1014.6 |
| 20260905095043 | 54 | 319 | 3.5 | 7.8 | 0.00 | 0.01 | 0.00 | 66 | 1014.7 |
| 20260905094558 | 54 | 303 | 4.3 | 7.0 | 0.00 | 0.01 | 0.00 | 63 | 1014.8 |
| 20260905094043 | 55 | 317 | 4.3 | 7.0 | 0.00 | 0.01 | 0.00 | 61 | 1014.7 |
| 20260905093547 | 55 | 317 | 4.3 | 7.8 | 0.00 | 0.01 | 0.00 | 60 | 1014.7 |
| 20260905093056 | 55 | 320 | 4.3 | 7.8 | 0.00 | 0.01 | 0.00 | 60 | 1014.9 |
| 20260905092546 | 55 | 311 | 5.2 | 8.7 | 0.00 | 0.01 | 0.00 | 59 | 1014.8 |
| 20260905092043 | 55 | 319 | 6.1 | 8.7 | 0.00 | 0.01 | 0.00 | 60 | 1014.9 |
| 20260905091604 | 55 | 313 | 6.1 | 8.7 | 0.00 | 0.01 | 0.00 | 60 | 1014.9 |
| 20260905091044 | 55 | 324 | 7.0 | 8.7 | 0.00 | 0.01 | 0.00 | 61 | 1015.0 |
| 20260905090544 | 55 | 321 | 7.0 | 8.7 | 0.00 | 0.01 | 0.00 | 60 | 1015.0 |
| 20260905090056 | 55 | 318 | 6.1 | 8.7 | 0.00 | 0.01 | 0.00 | 59 | 1015.0 |
| 20260905085545 | 55 | 304 | 6.1 | 8.7 | 0.00 | 0.01 | 0.00 | 60 | 1015.1 |
| 20260905085045 | 55 | 311 | 5.2 | 8.7 | 0.00 | 0.01 | 0.00 | 59 | 1015.2 |
| 20260905084553 | 55 | 306 | 5.2 | 8.7 | 0.00 | 0.01 | 0.00 | 58 | 1015.2 |
| 20260905084041 | 55 | 315 | 5.2 | 7.0 | 0.00 | 0.01 | 0.00 | 59 | 1015.1 |
| 20260905083543 | 55 | 314 | 3.5 | 7.0 | 0.00 | 0.01 | 0.00 | 60 | 1015.2 |
| 20260905083050 | 54 | 302 | 3.5 | 7.0 | 0.00 | 0.01 | 0.00 | 60 | 1015.3 |
| 20260905082543 | 54 | 315 | 4.3 | 7.0 | 0.00 | 0.01 | 0.00 | 60 | 1015.1 |
| 20260905082044 | 53 | 323 | 4.3 | 7.0 | 0.00 | 0.01 | 0.00 | 63 | 1015.2 |
| 20260905081604 | 53 | 327 | 2.6 | 5.2 | 0.00 | 0.01 | 0.00 | 65 | 1015.2 |
| 20260905081043 | 53 | 316 | 2.6 | 4.3 | 0.00 | 0.01 | 0.00 | 66 | 1015.2 |
| 20260905080543 | 53 | 327 | 1.7 | 4.3 | 0.00 | 0.01 | 0.00 | 67 | 1015.1 |
| 20260905075547 | 55 | 319 | 2.6 | 6.1 | 0.00 | 0.01 | 0.00 | 64 | 1015.2 |
| 20260905075041 | 55 | 319 | 3.5 | 7.0 | 0.00 | 0.01 | 0.00 | 61 | 1015.2 |
| 20260905074551 | 55 | 312 | 3.5 | 7.0 | 0.00 | 0.01 | 0.00 | 58 | 1015.3 |
| 20260905074043 | 55 | 310 | 4.3 | 7.0 | 0.00 | 0.01 | 0.00 | 58 | 1015.2 |
| 20260905073543 | 56 | 301 | 3.5 | 6.1 | 0.00 | 0.01 | 0.00 | 58 | 1015.2 |
| 20260905073100 | 56 | 317 | 3.5 | 5.2 | 0.00 | 0.01 | 0.00 | 57 | 1015.2 |
| 20260905072541 | 56 | 315 | 3.5 | 5.2 | 0.00 | 0.01 | 0.00 | 57 | 1015.2 |
| 20260905072043 | 55 | 315 | 2.6 | 7.0 | 0.00 | 0.01 | 0.00 | 57 | 1015.3 |
| 20260905071559 | 55 | 321 | 3.5 | 7.0 | 0.00 | 0.01 | 0.00 | 57 | 1015.2 |
| 20260905071043 | 55 | 318 | 3.5 | 7.0 | 0.00 | 0.01 | 0.00 | 58 | 1015.2 |
| 20260905070543 | 55 | 317 | 4.3 | 7.0 | 0.00 | 0.01 | 0.00 | 59 | 1015.3 |
| 20260905070100 | 55 | 313 | 4.3 | 7.0 | 0.00 | 0.01 | 0.00 | 60 | 1015.2 |
| 20260905065543 | 55 | 313 | 4.3 | 7.0 | 0.00 | 0.05 | 0.01 | 61 | 1015.1 |
| 20260905065040 | 56 | 319 | 3.5 | 7.0 | 0.00 | 0.05 | 0.01 | 58 | 1015.1 |
| 20260905064601 | 56 | 312 | 4.3 | 8.7 | 0.00 | 0.05 | 0.01 | 58 | 1015.2 |
| 20260905064040 | 55 | 315 | 5.2 | 8.7 | 0.00 | 0.05 | 0.01 | 58 | 1015.2 |
| 20260905063543 | 55 | 321 | 5.2 | 8.7 | 0.00 | 0.05 | 0.01 | 58 | 1015.1 |
| 20260905063103 | 55 | 316 | 4.3 | 7.8 | 0.00 | 0.05 | 0.01 | 60 | 1015.1 |
| 20260905062544 | 55 | 323 | 3.5 | 7.0 | 0.00 | 0.05 | 0.01 | 61 | 1015.2 |
| 20260905062044 | 55 | 321 | 4.3 | 7.0 | 0.00 | 0.05 | 0.01 | 61 | 1015.2 |
| 20260905061609 | 55 | 319 | 3.5 | 7.8 | 0.00 | 0.05 | 0.01 | 61 | 1015.3 |
| 20260905061043 | 55 | 313 | 3.5 | 8.7 | 0.00 | 0.05 | 0.01 | 61 | 1015.2 |
| 20260905060543 | 55 | 315 | 5.2 | 8.7 | 0.00 | 0.05 | 0.01 | 61 | 1015.2 |
| 20260905060058 | 55 | 321 | 5.2 | 9.6 | 0.00 | 0.05 | 0.01 | 63 | 1015.2 |
| 20260905055544 | 54 | 319 | 7.0 | 9.6 | 0.00 | 0.06 | 0.01 | 64 | 1015.1 |
| 20260905055043 | 54 | 321 | 7.0 | 9.6 | 0.00 | 0.06 | 0.01 | 66 | 1015.2 |
| 20260905054552 | 54 | 318 | 5.2 | 9.6 | 0.00 | 0.06 | 0.01 | 67 | 1015.3 |
| 20260905054047 | 53 | 298 | 6.1 | 8.7 | 0.00 | 0.06 | 0.01 | 69 | 1015.3 |
| 20260905053545 | 53 | 315 | 6.1 | 7.8 | 0.00 | 0.06 | 0.01 | 72 | 1015.4 |
| 20260905053103 | 53 | 316 | 6.1 | 7.8 | 0.00 | 0.06 | 0.01 | 79 | 1015.4 |
| 20260905052545 | 53 | 313 | 4.3 | 7.8 | 0.00 | 0.06 | 0.01 | 80 | 1015.4 |
| 20260905052044 | 53 | 305 | 5.2 | 8.7 | 0.00 | 0.06 | 0.01 | 79 | 1015.5 |
| 20260905051558 | 54 | 319 | 5.2 | 8.7 | 0.00 | 0.06 | 0.01 | 78 | 1015.5 |
| 20260905051043 | 54 | 309 | 6.1 | 8.7 | 0.00 | 0.06 | 0.01 | 78 | 1015.5 |
| 20260905050543 | 54 | 308 | 6.1 | 8.7 | 0.00 | 0.06 | 0.01 | 75 | 1015.6 |
| 20260905050059 | 55 | 310 | 5.2 | 8.7 | 0.00 | 0.06 | 0.01 | 71 | 1015.6 |
| 20260905045544 | 55 | 319 | 6.1 | 8.7 | 0.00 | 0.06 | 0.01 | 68 | 1015.5 |
| 20260905045040 | 55 | 302 | 6.1 | 7.8 | 0.00 | 0.06 | 0.01 | 68 | 1015.5 |
| 20260905044603 | 54 | 319 | 5.2 | 7.8 | 0.00 | 0.06 | 0.01 | 68 | 1015.5 |
| 20260905044043 | 54 | 303 | 5.2 | 7.8 | 0.00 | 0.06 | 0.01 | 70 | 1015.6 |
| 20260905043543 | 54 | 319 | 4.3 | 7.8 | 0.00 | 0.06 | 0.01 | 72 | 1015.6 |
| 20260905043051 | 54 | 315 | 4.3 | 7.8 | 0.00 | 0.06 | 0.01 | 75 | 1015.4 |
| 20260905042543 | 54 | 316 | 3.5 | 7.8 | 0.00 | 0.06 | 0.01 | 77 | 1015.6 |
| 20260905042044 | 55 | 317 | 4.3 | 7.8 | 0.00 | 0.06 | 0.01 | 78 | 1015.4 |
| 20260905041558 | 55 | 319 | 4.3 | 7.8 | 0.00 | 0.06 | 0.01 | 76 | 1015.5 |
| 20260905041044 | 55 | 300 | 5.2 | 8.7 | 0.00 | 0.06 | 0.01 | 72 | 1015.4 |
| 20260905040546 | 55 | 313 | 7.0 | 8.7 | 0.00 | 0.06 | 0.01 | 71 | 1015.4 |
| 20260905040056 | 54 | 314 | 6.1 | 7.8 | 0.00 | 0.06 | 0.01 | 73 | 1015.4 |
| 20260905035543 | 54 | 314 | 5.2 | 7.8 | 0.00 | 0.06 | 0.01 | 76 | 1015.4 |
| 20260905035044 | 54 | 319 | 4.3 | 7.0 | 0.00 | 0.06 | 0.01 | 77 | 1015.4 |
| 20260905034607 | 54 | 317 | 4.3 | 7.0 | 0.00 | 0.06 | 0.01 | 79 | 1015.4 |
| 20260905034044 | 55 | 311 | 3.5 | 7.0 | 0.00 | 0.06 | 0.01 | 79 | 1015.3 |
| 20260905033543 | 55 | 313 | 3.5 | 7.0 | 0.00 | 0.06 | 0.01 | 79 | 1015.2 |
| 20260905033103 | 55 | 324 | 3.5 | 7.0 | 0.00 | 0.06 | 0.01 | 78 | 1015.2 |
| 20260905032544 | 55 | 313 | 3.5 | 6.1 | 0.00 | 0.06 | 0.01 | 77 | 1015.1 |
| 20260905032043 | 56 | 310 | 2.6 | 4.3 | 0.00 | 0.06 | 0.01 | 76 | 1015.1 |
| 20260905031554 | 56 | 320 | 2.6 | 4.3 | 0.00 | 0.06 | 0.01 | 75 | 1015.1 |
| 20260905031044 | 56 | 307 | 1.7 | 4.3 | 0.00 | 0.06 | 0.01 | 74 | 1015.1 |
| 20260905030543 | 56 | 311 | 1.7 | 6.1 | 0.00 | 0.06 | 0.01 | 72 | 1015.0 |
| 20260905025543 | 57 | 311 | 2.6 | 7.0 | 0.00 | 0.06 | 0.01 | 70 | 1015.0 |
| 20260905025043 | 57 | 303 | 3.5 | 6.1 | 0.00 | 0.06 | 0.01 | 70 | 1015.1 |
| 20260905024555 | 57 | 309 | 3.5 | 7.0 | 0.00 | 0.06 | 0.01 | 71 | 1015.0 |
| 20260905024118 | 57 | 309 | 2.6 | 7.0 | 0.00 | 0.06 | 0.01 | 72 | 1015.0 |
| 20260905023543 | 58 | 313 | 2.6 | 7.0 | 0.00 | 0.06 | 0.01 | 71 | 1015.0 |
| 20260905023101 | 58 | 309 | 4.3 | 7.0 | 0.00 | 0.06 | 0.01 | 69 | 1015.0 |
| 20260905022543 | 58 | 315 | 2.6 | 7.0 | 0.00 | 0.06 | 0.01 | 68 | 1015.0 |
| 20260905022043 | 59 | 307 | 1.7 | 6.1 | 0.00 | 0.06 | 0.01 | 67 | 1015.0 |
| 20260905021557 | 59 | 299 | 1.7 | 7.8 | 0.00 | 0.06 | 0.01 | 65 | 1014.9 |